Regional Weather Roundup
Issued by NWS

Home | Current Version | Previous Version | Graphics & Text | Print | Product List | Glossary Off
Versions: 1 2 3 4 5 6 7 8 9 10 11 12 13 14 15 16 17 18 19 20 21 22 23 24 25 26 27 28 29 30 31 32 33 34 35 36 37 38 39 40 41 42 43 44 45 46 47 48 49 50

000
ASUS45 KBOI 202210
RWRID
WEATHER ROUNDUP FOR IDAHO
NATIONAL WEATHER SERVICE BOISE ID
400 PM MDT WED AUG 20 2014

NOTE: "FAIR" INDICATES FEW OR NO CLOUDS BELOW 12000 FEET
WITH NO SIGNIFICANT WEATHER AND/OR OBSTRUCTIONS TO VISIBILITY

IDZ012-014-202300-
SOUTHWEST IDAHO


CITY           SKY/WX    TMP DP  RH WIND       PRES   REMARKS
BOISE          PTSUNNY   83  46  27 N7        29.83F
CALDWELL       PTSUNNY   84  50  30 NE7       29.82F
MOUNTAIN HOME  MOSUNNY   83  50  31 SW8       29.82F
$$

IDZ016-017-202300-
SOUTHCENTRAL IDAHO


CITY           SKY/WX    TMP DP  RH WIND       PRES   REMARKS
BURLEY         PTSUNNY   79  48  33 S10       29.86F
JEROME         PTSUNNY   79  52  38 W9        29.88F
TWIN FALLS     PTSUNNY   80  50  34 NW13      29.88F
$$

IDZ019>023-202300-
SOUTHEAST IDAHO


CITY           SKY/WX    TMP DP  RH WIND       PRES   REMARKS
IDAHO FALLS    PTSUNNY   81  46  29 SW16      29.90F
POCATELLO      LGT RAIN  78  50  37 SW16G24   29.90F
REXBURG        MOSUNNY   76  47  35 SW10G21   29.91F
$$

IDZ006-010-011-018-031-032-202300-
CENTRAL IDAHO MOUNTAINS


CITY           SKY/WX    TMP DP  RH WIND       PRES   REMARKS
MCCALL         CLOUDY    73  43  33 SW10      29.92F
HAILEY         PTSUNNY   70  52  52 SE10      29.96F
STANLEY          N/A     62  44  51 N8        30.03F
SALMON         PTSUNNY   64  50  59 SW14G24   29.91R
CHALLIS        LGT RAIN  61  49  64 NW6G20    29.97R
$$

IDZ002-004-006-007-026-202300-
NORTHERN IDAHO


CITY           SKY/WX    TMP DP  RH WIND       PRES   REMARKS
LEWISTON       MOSUNNY   82  52  35 N3        29.79F
LOWELL           N/A     84  56  38 N6        29.76F
COEUR D`ALENE  PTSUNNY   77  50  38 S14       29.82F
MULLAN PASS    CLOUDY    56  49  77 VRB3      30.00S
$$


USA.gov is the U.S. government's official web portal to all federal, state and local government web resources and services.